Location: Newark
(25.6108°S, 54.5803°W)
Time: 13:45:10
(UTC+00:00)

Courier 1B Rocket - Pass Details

Date: 04 November 2020
Orbit: 920 x 1202 km, 28.2° (Epoch: 01 December)

Event Time Altitude Azimuth Distance (km) Brightness Sun altitude
Rises 13:45:56 0° 265° (W) 3,794 7.8 65.5°
Reaches altitude 10° 13:49:14 10° 278° (W) 2,788 7.3 66.2°
Maximum altitude 13:54:29 24° 330° (NNW) 1,878 6.8 67.3°
Drops below altitude 10° 13:59:29 10° 22° (NNE) 2,648 7.7 68.3°
Sets 14:02:33 0° 35° (NE) 3,563 8.2 69.0°
